Estación municipal de St. Hilari Sacalm (La Selva, Guilleries)

Consulta los datos en tiempo real de la estación municipal de St. Hilari Sacalm





Hora UTC 10:10
Temperatura 15.6 ºC
Humedad 67.5 %
Presión 1014.3 hPa
Pluja 0.0 mm
Velocidad viento 8.5 km/h
Dirección viento SSE
Radiación solar 1055.0 W/m²

Webcam

Datos diarios 2026-05-07



Hora UTC (invierno +1h; verano +2h)
Temperatura (ºC) Humedad (%) Presión (hPa) Velocidad viento (km/h) Precipitación (mm) Radiación solar (W/m²)
Hora UTC Aire Humedad Presión Vel. Dir. Vel. Max Dir. Intent. máx 5 min. Rad. Sol.
00:05 8.7 93.2 1014.2 0.0 NNE 0.0 NNE 0.0 0.1
00:10 8.6 93.2 1014.2 0.0 NNE 0.0 WNW 0.0 0.1
00:15 8.6 93.7 1014.2 0.0 NNE 0.0 NW 0.0 0.1
00:20 8.6 94.1 1014.1 0.0 NNE 0.0 NW 0.0 0.1
00:25 8.5 94.0 1014.1 0.0 NNE 0.0 NNW 0.0 0.1
00:30 8.4 93.9 1014.0 0.0 NNE 0.0 NNW 0.0 0.1
00:35 8.2 94.0 1014.0 0.0 NNE 0.0 NNW 0.0 0.1
00:40 8.2 94.2 1014.0 0.0 NNE 0.0 WNW 0.0 0.1
00:45 8.2 94.5 1014.0 0.0 NNE 0.0 NW 0.0 0.1
00:50 8.3 94.5 1014.0 0.0 NNE 0.0 NNW 0.0 0.1
00:55 8.1 94.2 1013.9 0.0 NNE 0.0 NNW 0.0 0.1
01:00 7.9 94.0 1013.9 0.0 NNE 0.0 NNW 0.0 0.1
01:05 8.0 94.4 1013.9 0.0 NNE 0.0 WSW 0.0 0.1
01:10 8.2 94.8 1013.8 0.0 NNE 0.0 W 0.0 0.1
01:15 8.2 94.8 1013.8 0.0 NNE 0.0 WNW 0.0 0.1
01:20 8.1 94.5 1013.7 0.0 NNE 0.0 WNW 0.0 0.1
01:25 8.0 94.5 1013.7 0.0 NNE 0.0 WSW 0.0 0.1
01:30 7.8 94.5 1013.7 0.0 NNE 0.0 W 0.0 0.1
01:35 7.7 94.5 1013.6 0.0 NNE 0.0 WNW 0.0 0.1
01:40 7.5 94.7 1013.6 0.0 NNE 0.0 WNW 0.0 0.1
01:45 7.4 94.7 1013.6 0.0 NNE 0.0 W 0.0 0.1
01:50 7.3 94.9 1013.6 0.0 NNE 0.0 WNW 0.0 0.1
01:55 7.2 95.0 1013.6 0.0 NNE 0.0 WNW 0.0 0.1
02:00 7.1 95.0 1013.6 0.0 NNE 0.0 WSW 0.0 0.1
02:05 7.0 95.0 1013.6 0.0 NNE 0.0 W 0.0 0.1
02:10 7.0 95.3 1013.6 0.0 NNE 0.0 WSW 0.0 0.1
02:15 7.1 95.5 1013.5 0.0 NNE 0.0 W 0.0 0.1
02:20 7.1 95.6 1013.5 0.0 NNE 0.0 SW 0.0 0.1
02:25 6.9 95.5 1013.5 0.0 NNE 0.0 WSW 0.0 0.1
02:30 6.9 95.6 1013.5 0.0 NNE 0.0 W 0.0 0.1
02:35 7.0 95.9 1013.4 0.0 NNE 0.0 NNW 0.0 0.1
02:40 6.9 95.8 1013.4 0.0 NNE 0.0 WNW 0.0 0.1
02:45 6.7 95.6 1013.4 0.0 NNE 0.0 WNW 0.0 0.1
02:50 6.5 95.5 1013.4 0.0 NNE 0.0 WSW 0.0 0.1
02:55 6.5 95.8 1013.4 0.0 NNE 0.0 W 0.0 0.1
03:00 6.4 95.7 1013.4 0.0 NNE 0.0 WNW 0.0 0.1
03:05 6.3 95.7 1013.4 0.0 NNE 0.0 W 0.0 0.1
03:10 6.2 95.7 1013.4 0.0 NNE 0.0 WNW 0.0 0.1
03:15 6.1 95.9 1013.4 0.0 NNE 0.0 WNW 0.0 0.1
03:20 6.1 95.9 1013.4 0.0 NNE 0.0 W 0.0 0.1
03:25 6.1 96.0 1013.3 0.0 NNE 0.0 WNW 0.0 0.1
03:30 6.0 96.0 1013.3 0.0 NNE 0.0 W 0.0 0.1
03:35 6.1 96.2 1013.3 0.0 NNE 0.0 WSW 0.0 0.1
03:40 6.0 96.1 1013.3 0.0 NNE 0.0 WSW 0.0 0.1
03:45 6.0 96.1 1013.3 0.0 WSW 3.4 WSW 0.0 0.1
03:50 6.0 96.3 1013.3 0.0 NNE 0.0 W 0.0 0.1
03:55 6.1 96.5 1013.3 0.0 NNE 0.0 W 0.0 0.1
04:00 6.3 96.7 1013.3 0.0 NNE 0.0 SSW 0.0 0.1
04:05 6.3 96.5 1013.3 0.0 NNE 0.0 SSW 0.0 0.1
04:10 6.1 96.2 1013.4 0.0 NNE 0.0 S 0.0 0.1
04:15 6.0 96.1 1013.4 0.0 NNE 0.0 WSW 0.0 0.1
04:20 6.0 96.4 1013.4 0.0 W 3.4 W 0.0 0.3
04:25 6.0 96.4 1013.3 0.0 NNE 0.0 W 0.0 0.7
04:30 6.0 96.4 1013.3 0.0 NNE 0.0 WSW 0.0 1.4
04:35 6.0 96.4 1013.2 0.0 NNE 0.0 S 0.0 2.5
04:40 6.0 96.3 1013.2 0.0 NNE 0.0 SSW 0.0 4.0
04:45 5.9 96.2 1013.3 0.0 NNE 0.0 SW 0.0 5.8
04:50 5.9 96.3 1013.3 0.0 NNE 0.0 SW 0.0 8.1
04:55 5.9 96.2 1013.3 0.0 NNE 0.0 WSW 0.0 10.8
05:00 5.9 96.3 1013.4 0.0 NNE 0.0 SW 0.0 14.0
05:05 6.1 96.6 1013.4 0.0 NNE 0.0 SSW 0.0 17.7
05:10 6.3 96.5 1013.5 0.0 NNE 0.0 SSW 0.0 57.8
05:15 6.4 96.4 1013.5 0.0 NNE 0.0 SW 0.0 81.1
05:20 6.8 96.1 1013.5 0.0 NNE 0.0 SSW 0.0 95.6
05:25 7.3 95.1 1013.5 0.0 NNE 0.0 WSW 0.0 107.7
05:30 7.8 94.4 1013.5 0.0 NNE 0.0 SSW 0.0 90.6
05:35 8.4 93.9 1013.5 0.0 NNE 0.0 W 0.0 136.1
05:40 8.9 93.1 1013.5 0.0 NNE 0.0 SW 0.0 151.5
05:45 9.3 92.8 1013.6 0.0 NNE 0.0 SW 0.0 166.2
05:50 9.5 91.0 1013.7 0.0 NNE 0.0 SSW 0.0 179.5
05:55 9.6 89.5 1013.7 0.0 NNE 0.0 S 0.0 194.2
06:00 9.8 88.2 1013.8 0.0 NNE 0.0 S 0.0 208.2
06:05 10.2 87.2 1013.8 0.0 NNE 0.0 S 0.0 222.9
06:10 11.0 85.8 1013.8 0.0 NNE 0.0 S 0.0 222.4
06:15 11.7 83.1 1013.8 0.0 NNE 0.0 SSE 0.0 222.5
06:20 12.0 80.9 1013.8 0.0 NNE 0.0 SE 0.0 253.7
06:25 12.3 79.3 1013.9 0.0 NNE 0.0 SE 0.0 191.3
06:30 12.1 78.5 1013.8 0.0 NNE 0.0 SE 0.0 220.9
06:35 12.5 80.1 1013.8 0.0 NNE 0.0 SE 0.0 314.3
06:40 13.0 77.1 1013.9 0.0 S 3.4 S 0.0 341.9
06:45 13.6 75.2 1013.9 0.0 NNE 0.0 S 0.0 354.0
06:50 13.8 72.5 1014.0 0.0 NNE 0.0 SSE 0.0 256.8
06:55 13.1 73.5 1014.0 4.3 SSE 8.8 S 0.0 253.2
07:00 12.5 76.0 1014.0 2.4 S 8.8 SSE 0.0 275.2
07:05 12.5 77.6 1014.0 0.0 S 3.4 S 0.0 108.5
07:10 12.2 78.1 1014.0 0.0 NNE 0.0 S 0.0 130.7
07:15 11.8 79.1 1014.1 3.8 SSE 8.8 SSW 0.0 96.6
07:20 11.3 81.3 1014.2 1.0 SSE 8.8 SSE 0.0 112.1
07:25 10.9 83.2 1014.2 3.3 S 8.8 S 0.0 207.4
07:30 11.0 84.2 1014.2 0.0 NNE 0.0 SSE 0.0 188.5
07:35 11.1 83.9 1014.2 2.7 S 11.5 S 0.0 112.0
07:40 10.9 84.8 1014.3 2.9 S 14.2 S 0.0 140.2
07:45 11.0 86.2 1014.4 2.6 S 14.2 S 0.0 502.9
07:50 11.7 85.5 1014.4 5.0 SSE 11.5 S 0.0 625.5
07:55 12.0 83.1 1014.3 2.2 SSE 11.5 S 0.0 570.3
08:00 12.8 81.2 1014.4 3.3 S 14.2 S 0.0 656.0
08:05 13.6 78.1 1014.3 4.2 SSW 8.8 S 0.0 587.8
08:10 14.0 74.2 1014.2 0.0 NNE 0.0 SSE 0.0 648.0
08:15 14.3 74.2 1014.2 0.0 NNE 0.0 E 0.0 597.6
08:20 14.7 73.2 1014.3 3.4 S 11.5 SSW 0.0 645.8
08:25 14.6 72.2 1014.2 3.1 SE 11.5 SSE 0.0 718.0
08:30 14.7 71.7 1014.2 4.4 S 8.8 S 0.0 630.6
08:35 14.3 71.4 1014.1 1.1 S 8.8 SSW 0.0 452.2
08:40 14.2 73.0 1014.1 1.1 SSE 14.2 SSE 0.0 624.4
08:45 14.5 74.1 1014.1 2.3 SSW 8.8 SSW 0.0 642.3
08:50 14.8 72.0 1014.1 4.1 S 11.5 S 0.0 791.5
08:55 14.4 72.0 1014.0 6.3 SSE 14.2 ESE 0.0 302.6
09:00 13.8 74.9 1014.1 5.8 S 16.9 SSE 0.0 549.3
09:05 14.4 76.7 1014.1 2.5 SSE 8.8 S 0.0 554.2
09:10 14.8 71.9 1014.2 5.4 S 11.5 S 0.0 349.5
09:15 14.6 72.1 1014.2 4.0 S 11.5 SSE 0.0 397.8
09:20 14.8 71.6 1014.2 4.1 S 11.5 SSE 0.0 949.0
09:25 15.0 70.0 1014.2 5.8 S 11.5 SSE 0.0 895.0
09:30 15.7 68.9 1014.3 4.0 SSW 11.5 SSW 0.0 634.8
09:35 15.5 69.0 1014.4 7.3 SSE 16.9 S 0.0 871.0
09:40 15.0 69.6 1014.3 9.9 SE 19.6 ESE 0.0 1038.0
09:45 15.0 69.8 1014.3 8.6 SSE 16.9 SE 0.0 776.6
09:50 14.7 70.4 1014.4 8.4 SE 16.9 SSE 0.0 730.0
09:55 15.2 70.0 1014.4 7.1 SSE 16.9 S 0.0 1060.0
10:00 15.1 68.7 1014.4 11.3 S 19.6 SSE 0.0 694.2
10:05 15.3 69.1 1014.3 5.8 SSE 14.2 SSE 0.0 905.0
10:10 15.6 67.5 1014.3 8.5 SSE 16.9 E 0.0 1055.0
Máxima 15.7 96.7 1014.4 11.3 S 19.6 SSE 0.0 1060.0
Mínima 5.9 67.5 1013.2
Total 0.0